EHI
0 0 0 0 0 0 0 0 0 0 0 0 0 0 0 0 0 0 0 0 0 0 0 0 0 0 0 0 0 0 0 0 0 0 0 0 0 0 0 0 0 0 0
0 0 0 0 0 0 0 0 0 0 0 0 0 0 0 0 0 0 0 0 0 0 0 0 0 0 0 0 0 0 0 0 0 0 0 0 0 0 0 0 0 0 0
0 0 0 0 0 0 0 0 0 0 0 0 0 0 0 0 0 0 0 0 0 0 0 0 0 0 0 0 0 0 0 0 0 0 0 0 0 0 0 0 0 0 0
0 0 0 0 0 0 0 0 0 0 0 0 0 0 0 0 0 0 0 0 0 0 0 0 0 0 0 0 0 0 0 0 0 0 0 0 0 0 0 0 0 0 0
0 0 0 0 0 0 0 0 0 0 0 0 0 0 0 0 0 0 0 0 0 0 0 0 0 0 0 0 0 0 0 0 0 0 0 0 0 0 0 0 0 0 0
0 0 0 0 0 0 0 0 0 0 0 0 0 0 0 0 0 0 0 0 0 0 0 0 0 0 0 0 0 0 0 0 0 0 0 0 0 0 0 0 0 0 0
0 0 0 0 0 0 0 0 0 0 0 0 0 0 0 0 0 0 0 0 0 0 0 0 0 0 0 0 0 0 0 0 0 0 0 0 0 0 0 0 0 0 0
0 0 0 0 0 0 0 0 0 0 0 0 0 0 0 0 0 0 0 0 0 0 0 0 0 0 0 0 0 0 0 0 0 0 0 0 0 0 0 0 0 0 0
0 0 0 0 0 0 0 0 0 0 0 0 0 0 0 0 0 0 0 0 0 0 0 0 0 0 0 0 0 0 0 0 0 0 0 0 0 0 0 0 0 0 0
1 1 1 1 0 0 0 0 0 0 0 0 0 0 0 0 0 0 0 0 0 0 0 0 0 0 0 0 0 0 0 0 0 0 0 0 0 0 0 0 0 0 0
2 4 5 3 1 0 0 0 0 0 0 0 0 0 0 0 0 0 0 0 0 0 0 0 0 0 0 0 0 0 0 0 0 0 0 0 0 0 0 0 0 0 0
2 4 6 5 2 0 0 0 0 0 0 0 0 0 0 0 0 0 0 0 0 0 0 0 0 0 0 0 0 0 0 0 0 0 0 0 0 0 0 0 0 0 0
0 2 3 3 1 0 0 0 0 0 0 0 0 0 0 0 0 0 0 0 0 0 0 0 0 0 0 0 0 0 0 0 0 0 0 0 0 0 0 0 0 0 0
0 0 1 1 0 0 0 0 0 0 0 0 0 0 0 0 0 0 0 0 0 0 0 0 0 0 0 0 0 0 0 0 0 0 0 0 0 0 0 0 0 0 0
0 0 0 0 0 0 0 0 0 0 0 0 0 0 0 0 0 0 0 0 0 0 0 0 0 0 0 0 0 0 0 0 0 0 0 0 0 0 0 0 0 0 0
0 0 0 0 0 0 0 0 0 0 0 0 0 0 0 0 0 0 0 0 0 0 0 0 0 0 0 0 0 0 0 0 0 0 0 0 0 0 0 0 0 0 0
0 0 0 0 0 0 0 0 0 0 0 0 0 0 0 0 0 0 0 0 0 0 0 0 0 0 0 0 0 0 0 0 0 0 0 0 0 0 0 0 0 0 0
0 0 0 0 0 0 0 0 0 0 0 0 0 0 0 0 0 0 0 0 0 0 0 0 0 0 0 0 0 0 0 0 0 0 0 0 0 0 0 0 0 0 0
0 0 0 0 0 0 0 0 0 0 0 0 0 0 0 0 0 0 0 0 0 0 0 0 0 0 0 0 0 0 0 0 0 0 0 0 0 0 0 0 0 0 0
0 0 0 0 0 0 0 0 0 0 0 0 0 0 0 0 0 0 0 0 0 0 0 0 0 0 0 0 0 0 0 0 0 0 0 0 0 0 0 0 0 0 0
0 0 0 0 0 0 0 0 0 0 0 0 0 0 0 0 0 0 0 0 0 0 0 0 0 0 0 0 0 0 0 0 0 0 0 0 0 0 0 0 0 0 0
0 0 0 0 0 0 0 0 0 0 0 0 0 0 0 0 0 0 0 0 0 0 0 0 0 0 0 0 0 0 0 0 0 0 0 0 0 0 0 0 0 0 0
0 0 0 0 0 0 0 0 0 0 0 0 0 0 0 0 0 0 0 0 0 0 0 0 0 0 0 0 0 0 0 0 0 0 0 0 0 0 0 0 0 0 0
0 0 0 0 0 0 0 0 0 0 0 0 0 0 0 0 0 0 0 0 0 0 0 0 0 0 0 0 0 0 0 0 0 0 0 0 0 0 0 0 0 0 0
0 0 0 0 0 0 0 0 0 0 0 0 0 0 0 0 0 0 0 0 0 0 0 0 0 0 0 0 0 0 0 0 0 0 0 0 0 0 0 0 0 0 0
0 0 0 0 0 0 0 0 0 0 0 0 0 0 0 0 0 0 0 0 0 0 0 0 0 0 0 0 0 0 0 0 0 0 0 0 0 0 0 0 0 0 0
Wind_Speed
4 4 4 6 6 6 5 5 5 5 5 5 4 3 4 3 5 6 4 9 10 10 10 9 9 9 9 9 9 8 9 9 9 9 9 10 10 10 11 11 11 12 12
5 5 4 5 5 5 6 5 6 4 4 4 4 4 3 3 4 7 6 6 9 10 10 10 9 9 9 9 8 8 8 7 7 8 8 8 8 8 9 10 10 10 11
6 5 5 5 5 5 6 5 6 4 4 4 4 4 4 4 4 7 8 5 5 7 10 11 10 9 9 8 8 7 7 6 6 5 6 6 6 6 7 7 8 8 9
7 6 5 5 5 5 4 5 4 4 4 4 4 4 3 3 4 5 6 7 5 5 6 10 11 10 9 8 8 7 6 5 4 4 4 4 4 4 5 5 6 6 7
8 6 5 5 5 4 4 5 4 4 4 4 4 4 4 4 3 4 5 7 7 7 5 8 10 10 10 9 8 7 6 4 4 3 2 1 1 2 3 4 5 6 6
8 7 6 7 6 5 5 5 5 4 4 5 4 3 3 4 4 4 5 5 6 8 8 7 5 6 10 10 9 7 6 5 4 3 2 1 1 2 3 4 5 6 7
7 7 6 7 7 7 8 7 6 6 5 4 3 1 2 2 4 4 4 5 6 7 8 9 6 5 5 11 10 8 7 5 4 3 2 2 3 4 5 6 7 7 8
9 7 8 6 7 7 8 9 7 6 5 6 5 4 3 3 5 5 5 6 7 6 7 9 8 8 6 4 7 10 8 6 5 3 3 3 3 5 6 7 8 9 10
11 10 9 8 7 7 8 9 9 10 7 6 6 6 6 7 4 4 7 6 6 6 6 6 8 8 8 6 6 9 9 7 5 4 3 3 4 5 7 9 10 11 11
11 12 11 11 9 7 8 9 10 8 8 7 5 5 4 5 5 3 3 5 6 7 8 7 7 7 7 6 8 12 11 9 7 5 4 4 5 7 8 10 11 12 13
9 11 12 11 11 9 9 9 9 9 8 8 7 4 5 2 3 5 4 4 4 5 6 7 6 6 7 7 6 10 13 10 8 6 5 5 6 8 10 11 12 13 14
5 8 10 11 11 10 10 10 9 10 9 9 7 6 5 4 5 4 4 3 4 4 4 4 6 6 6 7 9 15 13 11 9 7 6 6 8 10 11 12 13 14 15
4 6 7 9 9 11 11 10 10 10 10 10 10 8 6 6 3 4 3 3 3 1 2 2 3 4 5 5 7 15 12 10 8 7 7 8 9 11 12 13 14 15 16
5 5 5 7 8 9 10 9 9 9 8 10 10 9 6 7 5 4 4 5 3 1 1 2 1 3 4 4 7 12 6 9 9 8 8 9 11 12 13 14 15 16 16
5 5 5 5 6 6 7 8 7 8 7 8 8 8 6 4 4 4 3 5 7 6 5 3 1 2 3 4 8 4 3 7 8 10 10 12 13 13 14 15 16 16 17
6 6 5 4 4 3 3 4 4 4 5 5 4 5 5 3 3 3 3 3 3 5 5 3 2 2 3 4 8 3 3 8 11 12 13 14 15 15 16 16 17 17 18
6 6 5 4 3 2 1 0 1 1 2 1 1 2 2 3 3 2 3 3 3 4 4 3 2 2 3 4 3 2 3 4 5 12 14 15 16 16 17 17 18 18 19
7 7 7 6 6 5 4 3 3 3 3 3 3 4 4 4 5 4 3 3 3 3 4 5 3 3 3 4 3 3 4 5 4 11 15 16 17 17 18 18 18 18 19
8 9 9 9 8 8 7 6 6 6 5 5 5 5 5 6 6 5 5 4 4 3 3 4 4 2 2 3 3 4 5 4 6 9 12 14 15 17 17 18 18 18 18
9 9 9 9 9 8 8 8 8 8 8 8 7 6 5 5 6 6 5 5 4 5 4 4 3 2 2 3 3 3 4 4 4 5 7 10 14 16 17 17 18 18 18
10 9 9 9 8 7 8 8 8 8 9 9 8 7 6 7 8 6 5 4 4 3 3 3 2 2 3 3 3 3 3 2 3 3 3 4 5 5 7 13 17 18 19
9 9 9 9 9 8 13 14 11 9 9 9 8 8 7 7 8 9 8 7 5 3 2 2 2 2 3 3 2 2 1 0 3 2 2 4 4 6 6 6 15 19 19
9 9 9 9 10 12 16 16 16 10 9 8 8 7 6 7 8 6 6 5 3 1 1 1 1 1 1 1 1 0 1 3 4 3 4 7 5 7 7 10 18 19 20
8 8 9 9 10 12 16 16 16 10 9 8 7 6 5 5 4 3 2 2 1 1 1 1 1 1 1 1 2 3 3 4 4 4 3 6 5 6 8 6 15 19 19
7 7 7 8 8 9 14 14 12 5 6 6 5 4 3 2 3 3 2 1 1 2 3 3 4 5 8 9 7 2 2 3 4 4 2 3 4 4 5 6 8 14 15
6 6 6 5 5 5 10 11 9 3 3 2 1 1 3 3 4 4 2 2 2 2 3 4 4 6 5 7 9 4 4 3 3 4 2 2 3 3 6 4 3 4 7
Wind_Direction
181 185 183 176 184 184 186 183 206 197 184 184 195 181 177 190 138 129 131 139 143 147 148 146 143 137 129 120 111 104 97 92 86 81 75 70 64 60 58 56 52 48 45
181 193 200 188 189 185 179 183 201 192 178 173 181 191 193 182 151 140 141 141 151 156 160 160 157 151 144 136 127 117 107 99 91 84 77 71 64 58 56 53 49 45 41
189 191 206 200 193 189 181 181 198 188 174 168 181 192 191 189 169 147 151 149 151 162 169 170 167 162 155 148 140 131 121 111 102 92 82 73 62 54 50 46 42 38 34
203 195 202 209 194 189 187 185 190 177 169 166 180 194 185 180 184 165 157 157 158 162 175 175 173 171 166 160 152 143 136 131 124 112 97 82 61 43 34 30 26 22 19
208 202 200 203 194 193 194 190 186 173 172 179 189 185 183 179 196 182 166 164 164 163 161 173 171 172 173 171 165 159 154 152 153 150 135 108 54 16 2 1 359 356 355
215 209 204 202 194 192 197 191 185 185 179 177 182 177 192 186 193 192 185 172 165 164 162 161 158 172 178 179 177 175 173 172 175 180 188 228 291 318 324 327 328 329 331
232 222 213 206 200 200 199 191 180 189 190 156 131 162 266 229 209 199 194 181 176 172 164 168 170 169 181 188 185 185 186 187 189 195 216 263 291 304 308 310 313 314 316
226 230 226 220 209 206 202 198 189 183 184 165 148 140 207 254 254 218 197 194 187 179 178 176 177 173 175 171 186 186 189 191 199 211 227 257 282 296 303 306 307 307 308
219 222 228 228 222 213 211 206 199 190 192 191 176 164 173 204 211 227 215 200 190 184 186 180 182 177 174 168 172 183 181 186 197 212 232 262 287 297 300 302 302 303 303
213 214 218 223 227 224 219 214 209 200 183 192 212 222 203 161 161 199 237 213 197 191 188 190 186 179 170 158 167 172 175 181 192 204 223 255 280 291 296 300 301 301 302
217 212 212 216 222 225 225 221 214 208 201 194 194 200 224 235 177 151 197 211 211 207 192 186 180 175 168 154 154 168 173 182 192 203 225 256 278 288 294 298 299 300 300
240 222 215 214 217 220 222 222 219 215 210 205 200 194 186 194 203 184 172 178 202 215 194 178 176 171 165 158 165 169 175 185 195 212 238 265 283 292 297 298 297 296 294
269 250 228 220 219 220 220 218 218 218 213 208 207 206 205 209 186 192 183 158 155 168 163 167 164 157 157 145 157 167 178 188 204 226 251 275 291 297 297 295 293 293 291
277 278 260 239 226 221 220 217 219 219 214 214 214 208 205 208 199 192 183 158 148 153 172 173 101 126 127 128 158 164 179 200 220 242 262 282 291 292 291 290 289 289 288
297 293 288 274 246 228 223 217 219 219 214 215 215 211 207 198 190 183 171 171 169 179 200 177 147 114 118 114 159 158 172 217 240 256 266 277 283 285 285 286 286 286 285
326 320 309 305 290 253 231 220 221 221 215 217 211 204 199 170 161 162 163 158 163 169 175 164 154 130 130 150 170 167 208 239 252 262 272 278 280 281 282 283 283 283 282
346 345 340 343 343 343 4 151 193 173 188 185 150 170 157 130 129 123 126 137 143 144 151 138 123 135 158 169 175 201 229 241 255 266 273 278 280 282 282 282 282 281 280
7 7 11 20 24 28 34 56 74 86 106 118 110 112 115 113 112 112 114 117 122 120 138 146 147 157 179 185 189 219 240 247 248 265 272 277 280 282 282 281 280 279 278
20 23 29 33 34 35 38 40 56 67 74 83 96 112 120 122 119 115 115 115 112 101 98 133 139 142 163 185 193 224 238 248 255 264 274 282 285 286 284 283 282 280 279
31 33 35 38 41 43 47 51 59 66 69 68 72 84 98 116 122 120 116 119 116 103 100 112 118 144 170 173 185 215 238 235 250 263 277 283 286 290 290 289 288 286 283
38 39 42 42 42 47 54 62 65 72 76 75 70 73 82 101 115 112 118 117 113 110 117 118 140 163 179 184 201 204 226 245 264 263 268 277 285 282 285 286 288 285 283
41 45 48 49 50 57 68 73 76 71 74 76 74 67 69 71 85 93 109 115 123 130 137 148 172 187 198 204 193 185 190 292 292 288 302 285 280 278 272 263 278 283 283
48 51 51 55 59 65 71 74 76 71 68 66 67 65 62 57 57 53 67 72 66 87 175 170 186 212 224 182 137 174 243 243 248 261 289 283 267 272 270 277 286 289 291
53 54 53 56 60 64 70 74 76 70 68 64 61 60 63 55 54 52 50 53 2 301 260 219 193 248 266 224 194 210 230 257 263 262 256 275 276 271 280 274 287 290 293
62 59 57 56 58 60 66 71 73 70 72 68 64 61 59 51 41 30 25 334 297 289 272 257 260 272 278 278 269 250 256 278 287 281 245 256 280 294 285 277 286 295 299
74 72 68 62 60 56 61 62 64 66 71 71 69 69 57 37 9 5 8 350 333 350 8 352 321 304 290 280 278 244 201 215 251 284 274 281 296 332 309 285 272 285 293